Air Resources Laboratory banner image
Air Resources Laboratory web site National Oceanic and Atmospheric Administration (NOAA)

va roundup


Office: AKQ

ASUS41 KAKQ 191515
RWRAKQ

REGIONAL WEATHER ROUNDUP
NATIONAL WEATHER SERVICE WAKEFIELD VA
1000 AM EST MON FEB 19 2018

Note: "fair" indicates few or no clouds below 12,000 feet with no
significant weather and/or obstructions to visibility. * = Denotes
station may not report precipitation (e.g., rain,snow,etc.),
thunder or fog.

VAZ042-051-052>054-056-191600-
NORTHERN VIRGINIA

CITY           SKY/WX    TMP DP  RH WIND       PRES   REMARKS
WASH NATIONAL  CLOUDY    42  40  92 S8        30.48F
DULLES         CLOUDY    40  38  93 S8        30.46R
FORT BELVOIR   CLOUDY    41  38  88 SE6       30.48F
QUANTICO       CLOUDY    42  40  92 SW7       30.50S
FREDERICKSBRG* CLOUDY    41  41 100 S5        30.48S
STAFFORD*      CLOUDY    42  42 100 S5        30.52S
WARRENTON      CLOUDY    42  37  80 S7        30.46S
CULPEPER*      CLOUDY    42  37  80 S10       30.47S
MANASSAS*      CLOUDY    41  38  89 S6        30.48S
LEESBURG*      CLOUDY    41  39  93 S10       30.46S
WINCHESTER     CLOUDY    43  37  81 S6        30.40R
FRONT ROYAL*   CLOUDY    45  41  87 S3        30.38R
LURAY*         CLOUDY    45  41  87 SW14      30.38R
$$

VAZ048-049-060>072-079>083-191600-
CENTRAL AND SOUTH CENTRAL VIRGINIA

CITY           SKY/WX    TMP DP  RH WIND       PRES   REMARKS
RICHMOND       CLOUDY    42  41  96 SE5       30.48S FOG
CHESTERFIELD*  CLOUDY    41  40  96 S3        30.48S
PETERSBURG*    LGT RAIN  41  39  93 CALM      30.48F
HANOVER        CLOUDY    42  41  96 S6        30.49F
TAPPAHANNOCK*  CLOUDY    44  43  95 SE7       30.48F
QUINTON*       CLOUDY    41  41 100 MISG      30.47F
CHARLOTTSVILLE CLOUDY    43  40  89 S7        30.44F
GORDONSVILLE*  CLOUDY    40  39  97 S8        30.45F
ORANGE*        CLOUDY    39  36  87 S9G16     30.45F
LOUISA*        CLOUDY    39  38  94 SW6       30.51S
BUMPASS*       CLOUDY    40  38  95 S3        30.48R
FARMVILLE*     CLOUDY   N/A N/A N/A CALM      30.47F HAZE
CREWE*         CLOUDY    40  40 100 CALM      30.47F
FORT PICKETT*  CLOUDY    40  40 100 CALM      30.47S
CHASE CITY*    CLOUDY    41  41 100 CALM      30.48S
CLARKSVILLE*   CLOUDY    41  41 100 CALM      30.48S
SOUTH HILL*    CLOUDY    40  40 100 CALM      30.54R
LAWRENCEVILLE* CLOUDY    42  41  97 CALM      30.47F
EMPORIA*       RAIN      43  43 100 CALM      30.48F
$$

VAZ088>098-191600-
SOUTHEAST VIRGINIA

CITY           SKY/WX    TMP DP  RH WIND       PRES   REMARKS
NORFOLK        LGT RAIN  50  49  96 SE9       30.47F
VIRGINIA BEACH LGT RAIN  50  47  89 SE10      30.48F
NORFOLK NAVAL  LGT RAIN  51  48  89 SE8       30.49F
WEST POINT*    CLOUDY    46  44  93 SE6       30.50F
SALUDA*        CLOUDY    45  45 100 S7        30.49S
NEWPORT NEWS   LGT RAIN  49  46  90 SE7       30.48F
LANGLEY AFB    PTSUNNY   50  48  93 SE10      30.47F
FORT EUSTIS    CLOUDY    48  46  93 SE3       30.46F
WILLIAMSBURG*  FAIR      48  45  87 CALM      30.49S
HR EXEC AP*    LGT RAIN  48  48 100 SE8       30.48F
FRANKLIN*      LGT RAIN  46  46  97 E6        30.47F
US460-WAKEFLD  LGT RAIN  46  46 100 CALM      30.47F
$$

VAZ020-022-025-037-045-191600-
WEST CENTRAL AND SOUTHWEST VIRGINIA

CITY           SKY/WX    TMP DP  RH WIND       PRES   REMARKS
STAUNTON*      CLOUDY    43  40  88 S7        30.42S
WAYNESBORO*    CLOUDY    45  42  92 CALM      30.40F
HOT SPRINGS VA FOG       45  45 100 S13G22    30.37S VSB 3/4
LYNCHBURG      CLOUDY    40  39  97 CALM      30.46F FOG
DANVILLE       CLOUDY    42  42 100 NE5       30.47F FOG
SOUTH BOSTON*  CLOUDY    41  40  95 CALM      30.49S
MARTINSVILLE   CLOUDY    42  41  97 CALM      30.48S FOG
ROANOKE        CLOUDY    41  40  96 SE6       30.47S
BLACKSBURG     CLOUDY    42  42  99 CALM      30.44S FOG
DUBLIN*        CLOUDY    43  43  99 CALM      30.43R FOG
MARION*        CLOUDY    48  20  33 E8        30.41S
HILLSVILLE*    CLOUDY    45  44  96 S3        30.39S FOG
RICHLANDS*     FAIR      61  51  69 S8        30.32S
WISE*          PTSUNNY   55  50  82 S12       30.31F
ABINGDON*      CLOUDY    55  51  86 E8        30.34S
$$

MDZ021>025-VAZ099-100-191600-
SOUTHERN MARYLAND AND THE DELMARVA PENINSULA

CITY           SKY/WX    TMP DP  RH WIND       PRES   REMARKS
PATUXENT RIVER CLOUDY    44  42  93 S8        30.48S
BAY BRIDGE APT CLOUDY    43  39  87 S9        30.49S
LEONARDTOWN    CLOUDY    43  39  87 S3        30.50F
DOVER          PTSUNNY   48  40  72 S8        30.48F
GEORGETOWN     PTSUNNY   47  40  76 S9        30.50S
EASTON         PTSUNNY   45  37  76 S7        30.53R
CAMBRIDGE      CLOUDY    45  41  87 S7        30.50R
SALISBURY      CLOUDY    46  42  86 SE6       30.49S
OCEAN CITY     FAIR      47  43  86 SE6       30.50F
WALLOPS ISLAND LGT RAIN  51  46  83 S8        30.50F
ACCOMACK*      LGT RAIN  47  46  95 SE7       30.48F
$$

NCZ012>017-030>032-191600-
NORTH CENTRAL AND EASTERN NORTH CAROLINA

CITY           SKY/WX    TMP DP  RH WIND       PRES   REMARKS
ROANOKE RAPIDS DRIZZLE   43  43 100 CALM      30.48R
RALEIGH        CLOUDY    42  41  96 NE3       30.48S FOG
ELIZABETH CITY LGT RAIN  51  51 100 E8        30.49S FOG
AHOSKIE*       RAIN      45  45 100 CALM      30.47F
EDENTON*       DRIZZLE   52  50  95 E7        30.48S
CURRITUCK*     DRIZZLE   48  47  95 E3        30.50F
KILL DEVIL HLS LGT RAIN  51  51 100 CALM      30.48R
MANTEO         CLOUDY    56  50  79 SE7       30.48S
CAPE HATTERAS  CLOUDY    62  56  80 SE12      30.46S
TARBORO*       NOT AVBL
GOLDSBORO      CLOUDY    47  44  90 N6        30.45R
WASHINGTON     CLOUDY    48  47  94 E3        30.46F
GREENVILLE     CLOUDY    46  46 100 CALM      30.47R
NEW BERN       CLOUDY    53  50  89 CALM      30.46F
WILMINGTON     FAIR      63  54  72 NE3       30.44R
$$

VAZ048-191600-
ELSEWHERE

CITY           SKY/WX    TMP DP  RH WIND       PRES   REMARKS
HARRISBURG PA  CLOUDY    40  33  76 SE6       30.44S
BALTIMORE      CLOUDY    39  38  96 CALM      30.47S
ANNAPOLIS      CLOUDY    41  40  96 SE8       30.49R
ANDREWS AFB    CLOUDY    41  37  87 S8        30.46F
PHILADELPHIA   PTSUNNY   46  36  68 S12       30.49F
HENDERSON NC   DRIZZLE   39  38  97 N3        30.48R
GREENSBORO     RAIN      45  45 100 NE5       30.44S FOG
ROCKY MOUNT    CLOUDY    45  44  97 NW3       30.48S FOG
$$

VAZ100-191600-
MARINE

STATION/POSITION TIME  TEMP    WIND        PRES    WAVE   SWELL
                       AIR SEA DIR/SP/G            HT/PER HT/PER
                 (UTC) (F)     (DEG/KT/KT) (MB)    (FT/S) (FT/S)
BRANDYWINE LGT   1442   43     160/ 11/ 12 1033.0F
CAPE MAY NJ      1448   46 40  160/  9/ 13 1032.4F
LEWES DE         1448   46 42  160/  6/  9 1032.6F
15NM E FENWICK I 1450   45 42  100/  6/  6 1033.1F   2/ 9   2/ 9
OCEAN-CITY-INLET 1448   44 40  170/  4/  5 1033.1F
WACHAPREAGUE VA  1448   46 45  190/  3/  4 1032.7F
THOMAS POINT MD  1500   39 38  180/  9/  9   N/A
GOOSES REEF MD   1500   40 38  160/  6/  8 1032.8    1
COVE POINT MD    1448   42     190/  7/  9 1033.1R
SOLOMONS ISLAND  1448   43 40  170/  5/  8 1032.1F
BISHOPS HEAD MD  1448   44 43  180/  7/  9 1033.0R
POTOMAC MD       1500   43 41   30/  4/  6 1031.8    0
CAMBRIDGE MD     1442   44 43              1033.3R
LEWISETTA VA     1448   44 43  190/  8/ 10 1032.2R
RAPPAHANNOCK LGT 1448          150/  6/  7 1033.1F
STINGRAY PT      1500   43 42  210/  4/  6 1032.9    1
YORK RVR RNG VA  1448   44     160/  9/ 10 1032.7F
YORKTOWN VA      1448   47 44  160/  7/  8 1032.0F
DOMINION TERM VA 1448   47     130/  8/  9 1032.2F
KIPTOPEKE VA     1448      43  140/ 15/ 18   N/A
CAPE HENRY VA    1448   46     130/ 10/ 13   N/A
S CRANEY ISL VA  1448   48     150/  8/ 10 1032.0F
CAPE HENRY BUOY  1430      43                N/A     2/ 9
1ST LANDING BUOY 1500   43 41  150/ 10/ 12 1032.0    1/ 3
CAPE CHARLES BUO 1451      43                N/A     2/ 8
64NM E OF VA BCH 1450   53 50  120/  6/  8 1033.3F   3/10   2/10
DUCK PIER NC     1448   48 44   70/ 15/ 17 1031.9F
44100 DUCK FRF   1345      44                N/A     3/ 5
44056 DUCK FRF   1430      44                N/A     3/10
OREGON INLET NC  1436   50 47  100/  4/  6 1032.1R
HATTERAS NC      1448   63 56  140/ 11/ 14 1031.2R
DIAMOND SHLS NC  1450   67 72  140/ 17/ 23 1031.9S   6/10   3/10
CAPE LOOKOUT NC  1500          130/ 15/ 17 1031.1R
$$